Location: *
(52.2090°N, 4.1550°W)
Time: 03:26:27
(UTC+00:00)

Cosmos 407 Rocket - Pass Details

Date: 19 July 2019
Orbit: 743 x 787 km, 74.0° (Epoch: 20 August)

Event Time Altitude Azimuth Distance (km) Brightness Sun altitude
Rises 22:30:16 0° 214° (SSW) 3,247 6.5 -13.0°
Reaches altitude 10° 22:32:40 10° 217° (SW) 2,329 5.7 -13.2°
Maximum altitude 22:37:56 64° 299° (WNW) 870 4.0 -13.5°
Drops below altitude 10° 22:43:16 10° 21° (NNE) 2,360 6.7 -13.9°
Sets 22:45:43 0° 25° (NNE) 3,294 7.4 -14.0°
